Bemidji, MN

7:09 AM CST on February 26, 2017 (GMT -0600)
Bemidji-Beltrami County

Weather History for KBJI - January, 2011

Change the Weather History Date:

Saturday, January 22, 2011

  Actual Average Record
Temperature  
Mean Temperature -12 °F -  
Max Temperature 0 °F 21 °F 40 °F (1989)
Min Temperature -23 °F 0 °F -35 °F (1961)
Degree Days  
Heating Degree Days 76    
Moisture  
Dew Point -19 °F    
Average Humidity 74    
Maximum Humidity 84    
Minimum Humidity 55    
Precipitation  
Precipitation 0.00 in - - ()
Sea Level Pressure  
Sea Level Pressure 29.97 in    
Wind  
Wind Speed 5 mph (NW)    
Max Wind Speed 8 mph    
Max Gust Speed -    
Visibility 10 miles    
Events Snow    
Averages and records for this station are not official NWS values.
T = Trace of Precipitation, MM = Missing Value Source: NWS Daily Summary

Daily Weather History Graph

Daily Weather History Graph

Search for Another Location

Airport or City:

Trip Planner

Search our weather history database for the weather conditions in past years. The results will help you decide how hot, cold, wet, or windy it might be!

Date:

Astronomy

Jan. 22, 2011 Rise Set
Actual Time 7:57 AM CST 5:05 PM CST
Civil Twilight 7:23 AM CST 5:39 PM CST
Nautical Twilight 6:45 AM CST 6:17 PM CST
Astronomical Twilight 6:09 AM CST 6:53 PM CST
Moon 9:16 PM CST (1/22) 9:06 AM CST (1/22)
Length of Visible Light 10h 16m
Length of Day
9h 08m
Waning Gibbous, 89% of the Moon is Illuminated
Jan 22
Waning Gibbous
Jan 26
Last Quarter
Feb 2
New
Feb 11
First Quarter
Feb 18
Full

Hourly Weather History & Observations

Time (CST) Temp. Windchill Dew Point Humidity Pressure Visibility Wind Dir Wind Speed Gust Speed Precip Events Conditions
12:14 AM -11.2 °F -26.4 °F -16.6 °F 77% 29.77 in 7.0 mi WNW 6.9 mph - N/A Snow Light Snow
12:34 AM -13.0 °F -28.6 °F -16.6 °F 84% 29.76 in 7.0 mi WNW 6.9 mph - N/A Snow Light Snow
12:54 AM -16.6 °F -32.9 °F -22.0 °F 76% 29.77 in 10.0 mi WNW 6.9 mph - N/A Snow Light Snow
1:14 AM -16.6 °F -31.3 °F -20.2 °F 84% 29.77 in 10.0 mi WNW 5.8 mph - N/A   Scattered Clouds
1:34 AM -16.6 °F -31.3 °F -20.2 °F 84% 29.77 in 10.0 mi NW 5.8 mph - N/A   Clear
1:54 AM -16.6 °F -31.3 °F -20.2 °F 84% 29.77 in 10.0 mi WNW 5.8 mph - N/A   Clear
2:14 AM -16.6 °F -32.9 °F -20.2 °F 84% 29.78 in 10.0 mi West 6.9 mph - N/A   Clear
2:34 AM -20.2 °F -35.5 °F -25.6 °F 76% 29.78 in 10.0 mi West 5.8 mph - N/A   Clear
3:14 AM -18.4 °F -35.1 °F -23.8 °F 76% 29.80 in 10.0 mi West 6.9 mph - N/A   Clear
3:34 AM -20.2 °F -35.5 °F -27.4 °F 69% 29.80 in 10.0 mi WNW 5.8 mph - N/A   Mostly Cloudy
3:54 AM -18.4 °F -31.4 °F -23.8 °F 76% 29.81 in 10.0 mi NW 4.6 mph - N/A   Scattered Clouds
4:14 AM -18.4 °F -31.4 °F -23.8 °F 76% 29.83 in 10.0 mi West 4.6 mph - N/A   Clear
4:34 AM -20.2 °F -33.5 °F -25.6 °F 76% 29.84 in 10.0 mi WNW 4.6 mph - N/A   Clear
4:54 AM -20.2 °F -33.5 °F -25.6 °F 76% 29.83 in 10.0 mi NW 4.6 mph - N/A   Clear
5:14 AM -18.4 °F -28.9 °F -25.6 °F 70% 29.83 in 10.0 mi NW 3.5 mph - N/A   Clear
5:34 AM -20.2 °F -30.9 °F -27.4 °F 69% 29.84 in 10.0 mi WNW 3.5 mph - N/A   Clear
5:54 AM -20.2 °F -30.9 °F -27.4 °F 69% 29.85 in 10.0 mi NW 3.5 mph - N/A   Clear
6:14 AM -23.8 °F -37.7 °F -29.2 °F 76% 29.86 in 10.0 mi WNW 4.6 mph - N/A   Clear
6:34 AM -23.8 °F -39.8 °F -29.2 °F 76% 29.87 in 10.0 mi NW 5.8 mph - N/A   Clear
6:54 AM -23.8 °F -37.7 °F -29.2 °F 76% 29.87 in 10.0 mi NNW 4.6 mph - N/A   Clear
7:14 AM -18.4 °F -31.4 °F -25.6 °F 70% 29.88 in 10.0 mi NNW 4.6 mph - N/A   Clear
7:54 AM -18.4 °F -31.4 °F -23.8 °F 76% 29.89 in 10.0 mi North 4.6 mph - N/A   Clear
8:14 AM -23.8 °F -35.0 °F -29.2 °F 76% 29.90 in 10.0 mi NNW 3.5 mph - N/A   Clear
8:34 AM -23.8 °F - -29.2 °F 76% 29.91 in 10.0 mi Calm Calm - N/A   Clear
9:14 AM -16.6 °F -29.3 °F -22.0 °F 76% 29.92 in 10.0 mi North 4.6 mph - N/A   Clear
9:34 AM -14.8 °F -27.2 °F -20.2 °F 77% 29.94 in 10.0 mi North 4.6 mph - N/A   Clear
9:54 AM -13.0 °F -25.1 °F -18.4 °F 77% 29.95 in 10.0 mi North 4.6 mph - N/A   Clear
10:14 AM -11.2 °F -24.8 °F -16.6 °F 77% 29.96 in 10.0 mi North 5.8 mph - N/A   Clear
10:34 AM -9.4 °F -20.9 °F -14.8 °F 77% 29.97 in 10.0 mi North 4.6 mph - N/A   Clear
10:54 AM -9.4 °F -22.7 °F -14.8 °F 77% 29.99 in 10.0 mi North 5.8 mph - N/A   Clear
11:14 AM -7.6 °F -20.6 °F -13.0 °F 77% 29.99 in 10.0 mi North 5.8 mph - N/A   Clear
11:34 AM -7.6 °F -20.6 °F -11.2 °F 84% 30.00 in 10.0 mi NNW 5.8 mph - N/A   Clear
11:54 AM -7.6 °F -22.1 °F -11.2 °F 84% 30.01 in 10.0 mi NW 6.9 mph - N/A   Clear
12:14 PM -7.6 °F -22.1 °F -11.2 °F 84% 30.01 in 10.0 mi NW 6.9 mph - N/A   Clear
12:34 PM -5.8 °F -21.2 °F -11.2 °F 77% 30.02 in 10.0 mi NW 8.1 mph - N/A   Clear
12:54 PM -5.8 °F -19.9 °F -9.4 °F 84% 30.02 in 10.0 mi NW 6.9 mph - N/A   Clear
1:14 PM -4.0 °F -17.8 °F -9.4 °F 78% 30.03 in 10.0 mi North 6.9 mph - N/A   Clear
1:34 PM -2.2 °F -15.6 °F -9.4 °F 71% 30.03 in 10.0 mi NNW 6.9 mph - N/A   Clear
1:54 PM -0.4 °F -12.0 °F -11.2 °F 60% 30.04 in 10.0 mi NNW 5.8 mph - N/A   Clear
2:14 PM -0.4 °F -14.7 °F -11.2 °F 60% 30.05 in 10.0 mi NNW 8.1 mph - N/A   Clear
2:34 PM -0.4 °F -12.0 °F -11.2 °F 60% 30.06 in 10.0 mi North 5.8 mph - N/A   Clear
2:54 PM -0.4 °F -14.7 °F -11.2 °F 60% 30.07 in 10.0 mi NNW 8.1 mph - N/A   Clear
3:14 PM -0.4 °F -12.0 °F -11.2 °F 60% 30.08 in 10.0 mi North 5.8 mph - N/A   Clear
3:34 PM -0.4 °F -13.4 °F -13.0 °F 55% 30.09 in 10.0 mi North 6.9 mph - N/A   Clear
3:54 PM -2.2 °F -15.6 °F -13.0 °F 60% 30.10 in 10.0 mi NNW 6.9 mph - N/A   Clear
4:14 PM -2.2 °F -15.6 °F -14.8 °F 55% 30.11 in 10.0 mi NNW 6.9 mph - N/A   Clear
4:34 PM -2.2 °F -15.6 °F -14.8 °F 55% 30.12 in 10.0 mi NNW 6.9 mph - N/A   Clear
4:54 PM -5.8 °F -16.7 °F -14.8 °F 65% 30.12 in 10.0 mi North 4.6 mph - N/A   Clear
5:14 PM -5.8 °F -16.7 °F -14.8 °F 65% 30.13 in 10.0 mi North 4.6 mph - N/A   Clear
5:34 PM -7.6 °F -16.5 °F -14.8 °F 71% 30.14 in 10.0 mi NNW 3.5 mph - N/A   Clear
5:54 PM -9.4 °F - -16.6 °F 71% 30.14 in 10.0 mi Calm Calm - N/A   Clear
6:14 PM -9.4 °F - -14.8 °F 77% 30.15 in 10.0 mi Calm Calm - N/A   Clear
6:34 PM -11.2 °F - -16.6 °F 77% 30.16 in 10.0 mi Calm Calm - N/A   Clear
6:54 PM -11.2 °F - -16.6 °F 77% 30.16 in 10.0 mi Calm Calm - N/A   Clear
7:14 PM -16.6 °F - -22.0 °F 76% 30.17 in 10.0 mi Calm Calm - N/A   Clear
7:34 PM -14.8 °F - -20.2 °F 77% 30.17 in 10.0 mi Calm Calm - N/A   Clear
7:54 PM -18.4 °F - -23.8 °F 76% 30.17 in 10.0 mi Calm Calm - N/A   Clear
8:14 PM -18.4 °F - -23.8 °F 76% 30.18 in 10.0 mi Calm Calm - N/A   Clear
8:34 PM -16.6 °F - -22.0 °F 76% 30.18 in 10.0 mi Calm Calm - N/A   Clear
8:54 PM -18.4 °F - -23.8 °F 76% 30.18 in 10.0 mi Calm Calm - N/A   Clear
9:14 PM -20.2 °F - -25.6 °F 76% 30.18 in 10.0 mi Calm Calm - N/A   Clear
9:54 PM -22.0 °F - -27.4 °F 76% 30.19 in 10.0 mi Calm Calm - N/A   Clear
10:14 PM -20.2 °F - -27.4 °F 69% 30.19 in 10.0 mi Calm Calm - N/A   Clear
10:34 PM -22.0 °F - -27.4 °F 76% 30.19 in 10.0 mi Calm Calm - N/A   Clear
10:54 PM -20.2 °F - -25.6 °F 76% 30.19 in 10.0 mi Calm Calm - N/A   Clear
11:14 PM -18.4 °F - -25.6 °F 70% 30.19 in 10.0 mi Calm Calm - N/A   Clear
11:34 PM -20.2 °F - -25.6 °F 76% 30.19 in 10.0 mi Calm Calm - N/A   Clear
11:54 PM -20.2 °F - -25.6 °F 76% 30.19 in 10.0 mi Calm Calm - N/A   Clear